Regional Weather Roundup
Issued by NWS

Home | Current Version | Previous Version | Graphics & Text | Print | Product List | Glossary On
Versions: 1 2 3 4 5 6 7 8 9 10 11 12 13 14 15 16 17 18 19 20 21 22 23 24 25 26 27 28 29 30 31 32 33 34 35 36 37 38 39 40 41 42 43 44 45 46 47 48 49 50
000
ASUS43 KLSX 162259
RWRMO

WEATHER SUMMARY FOR MISSOURI
NATIONAL WEATHER SERVICE SPRINGFIELD MO
600 PM CDT TUE SEP 16 2014

NOTE: "FAIR" INDICATES FEW OR NO CLOUDS BELOW 12,000 FEET WITH NO
       SIGNIFICANT WEATHER AND/OR OBSTRUCTIONS TO VISIBILITY.
       CURRENT SKY AND/OR WEATHER CONDITIONS ARE NOT AVAILABLE FOR
       CHILLICOTHE AND FARMINGTON.

MOZ001>031-035>038-043-044-053-054-170000-
...NORTHERN AND WESTERN MISSOURI...

CITY           SKY/WX    TMP DP  RH WIND       PRES   REMARKS
KANSAS CTY INT SUNNY     69  52  54 E5        30.06F
KANSAS C DTWN  SUNNY     73  53  49 VRB3      30.05F
LEE`S SUMMIT   SUNNY     70  52  52 S3        30.07F
ST JOSEPH      SUNNY     69  53  56 SE9       30.05F
KIRKSVILLE     SUNNY     66  49  54 SE5       30.09F

$$
MOZ066>068-077>081-088>096-101>105-170000-
...SOUTHWEST MISSOURI...

CITY           SKY/WX    TMP DP  RH WIND       PRES   REMARKS
SPRINGFIELD    PTSUNNY   73  61  65 E6        30.07F
JOPLIN         MOSUNNY   74  64  71 VRB3      30.06F

$$
MOZ032>034-039>042-045>050-055>058-069>072-170000-
...CENTRAL MISSOURI...

CITY           SKY/WX    TMP DP  RH WIND       PRES   REMARKS
COLUMBIA       SUNNY     70  55  59 E3        30.09F
JEFFERSON CITY SUNNY     70  53  54 S5        30.07F
ROLLA          HAZE      67  53  61 CALM      30.09S VSB 1/2
SEDALIA        SUNNY     70  53  54 SE6       30.08F
OSAGE BEACH    PTSUNNY   70  55  60 S5        30.08F

$$
MOZ051-052-059>065-170000-
...EAST CENTRAL MISSOURI...

CITY           SKY/WX    TMP DP  RH WIND       PRES   REMARKS
ST LOUIS INTL  MOSUNNY   66  53  63 NE6       30.11F
SPIRIT OF STL  MOSUNNY   67  51  56 CALM      30.10F
ST CHARLES     MOSUNNY   65  52  62 VRB5      30.10F

$$
MOZ072>076-082>087-097>100-106>115-170000-
...SOUTH CENTRAL AND SOUTHEAST MISSOURI...

CITY           SKY/WX    TMP DP  RH WIND       PRES   REMARKS
CAPE GIRARDEAU SUNNY     65  54  67 E10       30.10S
FARMINGTON     CLOUDY    66  54  63 E6        30.12S
POPLAR BLUFF   CLOUDY    69  55  60 NE5       30.08F
WEST PLAINS    CLOUDY    67  58  72 SE5       30.11F

$$


USA.gov is the U.S. government's official web portal to all federal, state and local government web resources and services.